Wind_Speed
15 14 14 15 15 15 15 15 15 14 13 12 11 12 11 10 10 9 8 6 5 5 4 3 3 3 2 1 0 0 1 1 2 2 2 2 2 3 3 3 4 4 3
14 14 14 13 14 14 14 14 14 14 13 11 11 10 10 10 9 9 7 6 6 5 4 4 3 3 2 1 1 2 1 1 1 2 2 2 2 3 4 4 3 4 3
13 13 13 13 13 13 13 14 14 14 12 10 10 9 9 9 8 7 7 6 6 5 5 5 4 3 2 2 1 2 2 1 2 2 3 3 3 3 4 4 4 4 4
13 13 12 12 12 12 13 14 14 13 12 10 8 8 8 8 8 7 6 6 6 5 5 5 5 4 3 2 2 2 1 2 3 3 3 4 4 3 4 4 4 5 5
14 14 12 11 12 12 12 13 13 12 11 10 8 7 7 8 7 7 6 6 6 5 5 5 5 4 4 3 2 1 2 2 3 3 4 4 4 4 4 4 4 5 5
14 13 11 11 11 11 11 12 12 12 11 10 8 7 7 7 7 7 7 6 6 6 6 6 5 5 4 3 2 2 2 3 3 3 4 4 4 4 4 5 5 5 6
14 13 11 11 10 10 11 11 11 11 10 10 8 7 7 7 7 6 7 7 7 7 7 6 6 6 5 4 3 3 3 4 4 4 4 4 4 4 5 5 5 6 6
14 13 11 11 11 10 10 10 11 11 10 9 8 7 6 6 6 6 6 7 7 7 7 7 7 6 5 4 4 5 4 4 5 4 4 5 5 5 6 6 7 7 6
14 13 12 11 11 10 11 10 10 10 10 9 8 7 6 6 7 7 6 7 7 7 7 7 7 6 6 5 6 6 5 5 5 5 5 6 6 5 6 7 7 7 7
15 13 12 12 11 11 10 10 10 10 10 10 10 8 8 8 7 8 7 7 7 8 7 7 7 7 6 5 5 5 5 5 5 5 6 7 7 7 7 7 7 7 8
14 12 12 11 11 11 10 10 10 10 10 10 10 9 9 8 8 8 8 7 8 8 8 7 7 7 6 6 5 5 6 6 6 6 7 7 8 8 8 8 8 9 9
14 13 13 13 12 12 11 11 11 11 11 10 10 10 10 9 9 8 8 8 8 8 8 8 8 8 7 7 7 7 7 7 8 8 7 8 8 8 9 9 10 10 11
17 15 14 14 13 12 12 11 11 12 11 11 11 11 10 10 9 9 9 9 8 9 8 9 9 8 8 8 8 9 8 8 8 8 9 9 9 9 10 11 11 12 12
18 17 17 15 14 13 13 13 12 12 12 12 11 11 10 10 10 10 10 10 10 10 10 10 10 9 10 10 10 10 9 10 10 10 10 10 10 11 11 12 13 13 14
21 20 18 17 16 16 16 15 14 13 12 12 11 12 11 12 12 12 11 11 12 11 12 12 12 11 11 11 11 11 11 11 11 11 12 12 13 13 14 14 14 14 15
23 22 20 20 18 18 17 15 15 12 11 12 12 13 13 13 13 13 13 13 13 13 13 13 13 13 13 13 13 13 12 12 13 13 14 14 15 15 15 15 15 16 16
23 23 22 21 21 20 18 17 14 13 13 13 13 14 14 14 14 13 14 14 14 14 14 13 14 14 14 14 14 13 14 14 14 15 15 15 15 15 15 16 17 17 17
24 23 22 21 22 21 20 18 17 16 14 13 14 14 15 15 15 15 15 15 15 15 15 15 15 15 16 15 15 14 14 14 15 15 15 15 15 16 16 17 17 17 16
25 24 23 23 23 22 21 20 19 18 17 16 16 16 16 16 16 16 16 17 17 17 17 17 17 16 16 16 16 15 15 15 15 15 16 16 17 17 18 18 18 18 18
26 26 26 25 25 24 23 22 20 19 18 17 17 17 18 18 18 18 18 18 18 18 18 17 18 18 17 17 16 16 16 16 17 17 17 17 18 18 19 19 19 19 20
26 26 27 27 25 24 24 23 22 21 20 20 19 19 19 19 19 19 19 18 18 18 18 18 19 19 19 18 18 18 18 18 18 18 19 19 20 20 20 21 21 21 21
27 26 26 25 25 25 24 23 22 21 21 21 21 21 21 21 21 21 20 20 20 20 19 19 19 19 20 20 20 20 19 19 20 21 21 21 21 21 21 22 22 22 23
27 27 26 25 25 24 24 23 23 23 22 22 23 23 22 22 22 22 22 22 21 21 21 21 21 20 20 21 20 21 21 21 21 21 21 21 22 22 23 23 23 24 24
29 28 27 26 26 25 24 24 23 23 23 24 24 24 23 23 23 23 23 23 23 23 22 21 21 22 22 21 21 21 22 22 22 22 22 23 23 23 23 24 24 25 25
29 28 27 26 26 25 25 24 24 25 25 25 24 24 24 24 25 25 24 23 23 22 22 22 23 23 23 23 23 23 24 24 24 23 23 23 24 24 24 25 25 25 26
29 28 27 26 25 25 25 26 26 26 25 25 25 25 26 26 27 26 25 24 24 24 24 24 24 24 24 24 24 25 25 24 25 25 25 25 25 26 26 26 26 26 27
Wind_Direction
11 12 13 15 19 21 23 22 21 22 23 26 26 26 28 30 29 27 30 34 32 31 30 24 21 10 6 19 41 315 227 213 237 258 270 282 289 277 272 260 256 259 248
2 3 6 10 13 16 18 17 17 16 15 19 22 23 25 27 29 29 27 31 35 33 27 22 16 357 333 324 303 287 240 221 244 261 265 279 291 284 273 266 263 259 253
355 357 360 3 6 9 10 12 11 10 11 14 18 21 21 21 25 28 27 28 28 27 26 24 21 4 340 331 321 306 269 246 259 271 274 273 277 275 272 270 262 260 260
346 348 350 353 357 1 4 6 5 6 8 8 12 17 19 22 23 24 25 25 23 20 19 16 16 9 360 350 340 347 298 255 264 276 282 283 280 282 287 277 266 265 261
335 336 339 342 346 352 358 1 1 3 6 6 8 12 18 23 23 23 20 15 12 11 11 7 2 0 3 349 318 307 302 287 272 278 281 287 286 288 283 277 272 265 265
325 327 330 333 334 338 348 354 357 358 2 5 8 9 12 16 19 18 15 9 7 6 6 2 356 353 356 353 324 308 300 303 288 283 288 289 293 286 278 277 278 273 277
320 321 321 325 325 327 335 344 350 352 357 2 5 4 5 9 10 9 5 7 9 7 360 356 349 347 349 351 335 313 295 293 296 287 286 289 296 293 284 273 269 278 280
316 319 318 316 322 323 327 336 348 348 351 354 358 358 356 357 358 355 356 0 2 358 353 347 341 339 337 328 326 317 306 294 291 286 287 287 290 288 282 276 275 274 278
308 311 316 314 316 317 321 329 342 343 343 345 346 346 345 341 342 345 346 351 350 349 346 341 339 334 327 316 317 315 307 299 295 291 288 288 290 291 290 283 282 281 281
299 304 310 312 318 320 320 320 335 343 344 343 340 333 332 335 331 333 339 342 341 340 339 339 333 333 328 320 315 307 300 293 291 290 288 289 290 291 293 292 286 285 287
293 298 303 308 313 313 313 317 323 327 332 334 333 329 324 324 327 328 328 328 330 330 332 330 329 328 326 317 310 298 295 289 284 286 290 289 287 288 288 287 286 286 288
287 292 297 301 305 307 309 312 314 318 322 324 323 323 321 319 320 320 319 317 319 320 321 325 324 320 319 314 307 300 293 288 284 286 290 289 286 286 287 285 285 286 287
282 286 290 294 295 298 301 305 307 309 310 312 313 314 314 313 313 315 316 315 315 319 321 322 318 317 315 313 305 301 297 296 292 289 289 285 285 286 288 289 285 285 286
281 281 284 287 285 285 287 291 297 300 302 304 305 307 306 306 308 309 308 309 311 312 314 315 316 315 313 310 305 301 298 295 294 291 290 289 290 290 289 291 289 285 284
279 276 276 278 278 281 282 282 286 289 289 292 299 302 303 301 302 302 302 303 306 306 307 309 309 307 306 306 304 302 298 294 294 290 289 287 289 288 289 290 290 288 286
276 277 276 276 277 279 280 283 285 284 286 288 291 296 301 300 297 296 295 298 300 301 302 303 305 304 304 303 302 301 298 295 293 291 289 286 283 287 288 289 289 287 287
271 274 274 274 275 276 278 278 281 284 286 288 290 292 296 296 294 293 295 296 296 298 300 301 302 303 303 303 301 296 296 296 293 290 288 288 286 285 287 289 290 289 289
268 271 273 273 273 276 278 277 280 278 278 282 288 292 294 293 291 291 293 295 298 298 297 297 297 299 298 298 298 296 295 296 295 292 289 290 290 289 289 292 294 294 292
266 268 270 269 269 272 273 276 275 276 280 280 283 286 290 290 290 291 292 295 297 296 296 293 293 295 296 295 294 291 291 291 291 291 292 293 294 293 292 292 292 293 291
267 268 269 267 267 269 269 272 271 271 276 279 280 281 284 287 286 287 290 293 296 296 295 297 295 294 294 293 292 289 289 289 290 290 290 291 293 294 294 293 292 292 291
268 268 268 266 263 264 268 271 268 270 274 276 278 279 281 284 284 284 287 291 294 295 294 296 296 294 292 291 290 290 288 290 291 292 292 292 293 293 294 294 293 293 293
267 268 270 267 267 269 268 269 270 272 273 275 277 280 282 283 286 284 284 287 291 294 293 295 297 296 294 293 291 290 290 289 289 290 291 292 292 293 293 293 293 293 294
265 267 268 269 269 272 273 269 271 273 274 277 278 280 281 282 283 284 285 287 288 290 291 292 293 294 294 294 292 290 289 289 289 290 291 291 291 292 293 293 293 294 295
264 266 267 268 268 270 272 270 271 273 274 276 279 279 279 280 280 281 283 286 288 288 288 289 291 293 292 293 292 291 289 289 290 290 290 291 291 291 293 293 292 292 294
264 266 267 266 265 267 269 269 270 271 274 275 278 280 280 280 279 280 280 283 285 288 289 290 291 292 292 292 291 291 292 291 288 288 288 289 290 290 292 293 294 293 294
264 265 266 266 265 267 269 268 269 271 274 275 276 278 279 279 278 279 280 282 285 287 288 289 289 291 292 291 292 292 292 291 289 288 288 289 291 291 292 293 294 295 295
Height
5939 5937 5935 5932 5930 5927 5925 5923 5920 5918 5916 5914 5912 5910 5909 5907 5906 5904 5903 5902 5901 5900 5899 5898 5897 5896 5896 5895 5895 5895 5895 5895 5895 5895 5895 5894 5894 5893 5893 5892 5892 5891 5891
5939 5937 5935 5933 5930 5928 5926 5924 5921 5919 5916 5914 5913 5911 5909 5908 5906 5905 5903 5902 5901 5900 5899 5898 5897 5896 5895 5895 5895 5894 5894 5894 5894 5894 5894 5894 5894 5893 5892 5891 5891 5891 5890
5939 5937 5935 5933 5931 5928 5926 5924 5921 5919 5916 5914 5913 5911 5909 5908 5906 5905 5904 5902 5901 5900 5899 5898 5897 5896 5895 5895 5894 5894 5894 5894 5893 5893 5893 5893 5892 5892 5891 5890 5890 5890 5890
5939 5937 5935 5933 5931 5929 5926 5924 5921 5919 5916 5914 5912 5911 5909 5908 5906 5905 5904 5903 5901 5900 5899 5898 5896 5896 5895 5894 5894 5894 5893 5893 5893 5893 5892 5892 5891 5891 5890 5890 5889 5889 5889
5938 5937 5935 5933 5931 5928 5926 5924 5921 5918 5916 5914 5912 5911 5909 5908 5907 5905 5904 5903 5901 5900 5899 5897 5896 5895 5894 5894 5893 5893 5893 5892 5892 5892 5891 5890 5890 5889 5889 5889 5888 5888 5887
5936 5935 5934 5932 5930 5928 5926 5923 5921 5919 5916 5914 5912 5911 5909 5908 5907 5905 5904 5903 5902 5900 5898 5897 5896 5895 5894 5893 5893 5892 5892 5891 5891 5890 5890 5889 5889 5888 5888 5887 5887 5886 5886
5934 5933 5932 5931 5928 5926 5925 5922 5920 5918 5916 5914 5912 5911 5909 5908 5907 5905 5904 5903 5901 5900 5898 5897 5896 5895 5893 5892 5892 5891 5891 5890 5890 5889 5889 5888 5887 5887 5886 5886 5885 5885 5884
5932 5931 5929 5929 5927 5925 5923 5921 5919 5918 5915 5913 5912 5910 5909 5908 5906 5905 5904 5902 5901 5900 5898 5897 5895 5894 5893 5892 5891 5890 5889 5889 5888 5888 5887 5887 5886 5885 5885 5884 5884 5883 5883
5930 5929 5928 5927 5926 5924 5922 5921 5919 5916 5914 5913 5911 5910 5909 5907 5906 5904 5902 5901 5900 5899 5897 5896 5894 5893 5891 5890 5889 5889 5888 5887 5887 5886 5885 5885 5885 5884 5883 5882 5882 5882 5881
5927 5927 5926 5924 5924 5922 5921 5919 5917 5916 5914 5912 5911 5909 5908 5907 5905 5904 5902 5901 5899 5898 5896 5895 5893 5891 5890 5888 5888 5887 5886 5886 5885 5884 5884 5883 5883 5882 5881 5880 5879 5879 5878
5924 5924 5923 5922 5921 5920 5919 5917 5916 5915 5913 5911 5910 5908 5907 5905 5904 5902 5901 5899 5898 5896 5895 5893 5891 5890 5888 5887 5886 5885 5885 5884 5883 5883 5882 5881 5880 5879 5879 5878 5877 5876 5876
5921 5921 5920 5919 5918 5917 5916 5915 5914 5913 5911 5910 5908 5907 5905 5903 5902 5901 5899 5898 5896 5895 5893 5892 5890 5889 5887 5886 5885 5884 5883 5882 5881 5880 5879 5879 5878 5877 5876 5875 5874 5874 5873
5916 5916 5916 5915 5915 5914 5914 5913 5912 5911 5909 5907 5906 5904 5903 5901 5900 5899 5897 5896 5895 5893 5892 5890 5889 5887 5886 5884 5883 5882 5881 5880 5879 5878 5877 5876 5875 5874 5873 5873 5872 5870 5869
5911 5911 5911 5911 5912 5911 5910 5910 5909 5908 5906 5904 5903 5902 5901 5899 5898 5897 5895 5894 5893 5891 5890 5889 5887 5885 5884 5882 5881 5880 5879 5878 5876 5875 5874 5873 5872 5872 5870 5869 5868 5867 5865
5906 5906 5906 5907 5907 5907 5906 5905 5905 5903 5902 5901 5900 5899 5898 5897 5896 5894 5893 5892 5890 5889 5888 5886 5885 5883 5882 5880 5879 5877 5876 5875 5873 5872 5871 5870 5869 5868 5867 5866 5864 5863 5861
5901 5901 5902 5902 5902 5902 5901 5901 5900 5897 5897 5897 5897 5896 5895 5894 5893 5891 5890 5889 5888 5886 5885 5883 5882 5881 5879 5877 5876 5874 5873 5872 5870 5869 5868 5866 5865 5864 5863 5861 5860 5858 5857
5897 5897 5897 5897 5897 5897 5897 5897 5895 5894 5894 5894 5893 5891 5891 5890 5889 5888 5887 5885 5884 5883 5881 5880 5878 5877 5875 5874 5872 5870 5869 5868 5867 5865 5864 5862 5861 5860 5858 5857 5855 5854 5852
5891 5892 5892 5892 5892 5892 5892 5892 5891 5890 5890 5890 5889 5888 5887 5886 5885 5884 5883 5881 5880 5879 5878 5876 5875 5873 5871 5870 5868 5867 5865 5864 5863 5861 5860 5858 5857 5855 5854 5853 5851 5849 5847
5885 5886 5886 5887 5887 5887 5887 5887 5886 5885 5885 5886 5885 5884 5883 5882 5881 5880 5879 5877 5876 5874 5873 5871 5870 5868 5867 5865 5864 5863 5861 5860 5858 5857 5856 5854 5853 5851 5850 5848 5846 5844 5842
5879 5880 5880 5880 5881 5881 5881 5881 5880 5880 5881 5881 5880 5879 5879 5877 5876 5875 5874 5873 5871 5870 5868 5866 5865 5864 5862 5861 5859 5858 5857 5855 5854 5853 5851 5849 5848 5846 5845 5843 5841 5839 5837
5872 5873 5873 5873 5874 5874 5875 5876 5876 5876 5875 5875 5874 5874 5873 5872 5871 5870 5869 5868 5866 5865 5863 5862 5860 5859 5857 5856 5854 5853 5851 5850 5849 5848 5846 5844 5842 5841 5839 5837 5835 5833 5831
5866 5866 5866 5866 5867 5867 5868 5869 5869 5869 5869 5869 5869 5868 5867 5866 5865 5864 5863 5862 5861 5860 5858 5857 5855 5854 5853 5851 5849 5847 5846 5845 5844 5842 5841 5839 5837 5835 5833 5831 5829 5827 5825
5859 5859 5859 5860 5861 5861 5861 5862 5863 5863 5863 5863 5863 5862 5861 5860 5859 5859 5858 5857 5855 5854 5853 5851 5850 5849 5847 5845 5844 5842 5840 5839 5838 5836 5835 5833 5831 5829 5827 5825 5823 5820 5818
5852 5852 5853 5853 5854 5854 5855 5856 5856 5856 5856 5856 5856 5855 5855 5854 5853 5852 5851 5850 5849 5848 5847 5845 5844 5843 5841 5840 5838 5836 5834 5833 5831 5830 5828 5826 5824 5822 5820 5818 5816 5814 5811
5844 5845 5846 5846 5846 5847 5848 5848 5849 5849 5849 5849 5849 5848 5848 5847 5847 5846 5845 5844 5843 5841 5840 5839 5838 5836 5835 5833 5832 5830 5828 5826 5825 5823 5821 5819 5818 5816 5813 5811 5809 5806 5804
5835 5837 5838 5839 5839 5840 5840 5841 5841 5842 5841 5842 5842 5842 5841 5841 5840 5839 5838 5837 5836 5835 5834 5833 5831 5830 5828 5827 5825 5823 5821 5819 5818 5816 5814 5812 5810 5808 5806 5804 5801 5798 5796